Regional Weather Roundup
Issued by NWS

Home | Current Version | Previous Version | Graphics & Text | Print | Product List | Glossary Off
Versions: 1 2 3 4 5 6 7 8 9 10 11 12 13 14 15 16 17 18 19 20 21 22 23 24 25 26 27 28

000
ASUS45 KCYS 211810
RWRWY

WYOMING REGIONAL WEATHER ROUNDUP
NATIONAL WEATHER SERVICE CHEYENNE WY
1100 AM MST SUN JAN 21 2018

NOTE:  "FAIR" INDICATES FEW OR NO CLOUDS BELOW 12,000 FEET
WITH NO SIGNIFICANT WEATHER AND/OR OBSTRUCTIONS TO VISIBILITY.

WYZ001-211900-
YELLOWSTONE NATIONAL PARK

CITY           SKY/WX    TMP DP  RH WIND       PRES   REMARKS
LK YELLOWSTONE   N/A     -7 -10  87 CALM      30.08R
6HR MIN TEMP: -17; 6HR MAX TEMP:  -4;

W YELLOWSTONE  NOT AVBL

$$
WYZ002>013-054>058-071-098>099-211900-
NORTHERN WYOMING

CITY           SKY/WX    TMP DP  RH WIND       PRES   REMARKS
JACKSON        FAIR      17   6  62 E7        30.10R WCI   8
CODY           FAIR      32  13  45 W6        30.06S WCI  26
GREYBULL       FAIR      26  20  77 CALM      30.09R
6HR MIN TEMP:  15; 6HR MAX TEMP:  26;

WORLAND        FAIR      22  18  85 CALM      30.08R
6HR MIN TEMP:  16; 6HR MAX TEMP:  23;

SHERIDAN       FAIR      30  19  63 NW9       30.07S WCI  22
6HR MIN TEMP:  26; 6HR MAX TEMP:  31;

BUFFALO        FAIR      30  16  56 N18       30.03S WCI  18
6HR MIN TEMP:  23; 6HR MAX TEMP:  30;

GILLETTE       FAIR      28  21  75 NW10      30.03R WCI  19
6HR MIN TEMP:  22; 6HR MAX TEMP:  28;

HULETT         MOCLDY    28  23  80 CALM      30.02S
NEWCASTLE      FAIR      30  23  74 NW9       30.00S WCI  22

$$
WYZ014>020-022>026-101>103-211900-
CENTRAL WYOMING

CITY           SKY/WX    TMP DP  RH WIND       PRES   REMARKS
BIG PINEY      FAIR      24   9  52 N15       29.99R WCI  11
6HR MIN TEMP:  12; 6HR MAX TEMP:  24; 6HR PCP: TRACE;

PINEDALE       FAIR      21  10  63 NW6       30.00R WCI  14
DUBOIS         FAIR      19  10  68 NW6       29.98S WCI  11
LANDER         CLOUDY    25  17  72 W6        30.03R WCI  18
6HR MIN TEMP:  21; 6HR MAX TEMP:  25; 6HR PCP:  0.01;

RIVERTON       FAIR      22  14  71 NW9       30.04R WCI  12
6HR MIN TEMP:  20; 6HR MAX TEMP:  23;

CASPER         CLOUDY    23  20  88 NW5       30.01R WCI  17
6HR MIN TEMP:  20; 6HR MAX TEMP:  23; 6HR PCP:  0.08;

DOUGLAS        LGT SNOW  25  22  88 NW12      30.00R FOG     WCI  14
6HR MIN TEMP:  23; 6HR MAX TEMP:  25; 6HR PCP: TRACE;


$$
WYZ021-027>030-104>119-211900-
SOUTHERN WYOMING

CITY           SKY/WX    TMP DP  RH WIND       PRES   REMARKS
EVANSTON       LGT SNOW  17  12  80 W8        30.06R WCI   7
6HR MIN TEMP:  11; 6HR MAX TEMP:  17; 6HR PCP: TRACE;

FORT BRIDGER   CLOUDY    20  13  74 W17       30.06R WCI   5
ROCK SPRINGS   LGT SNOW  17  13  84 SW10      30.00R FOG     WCI   5
6HR MIN TEMP:  16; 6HR MAX TEMP:  19; 6HR PCP:  0.01;

DIXON            N/A     23  14  68 N26G33    29.93R HAZE    WCI   6
RAWLINS        MIX PCPN  20  14  77 N16       29.94R WCI   6
6HR MIN TEMP:  18; 6HR MAX TEMP:  20; 6HR PCP: TRACE;

SARATOGA       CLOUDY    19  16  86 N15G23    29.91R WCI   5
LARAMIE        LGT SNOW  18  15  88 N10       29.85R VSB 3/4 WCI   6
6HR MIN TEMP:  17; 6HR MAX TEMP:  19; 6HR PCP:  0.01;

CHEYENNE       LGT SNOW  21  19  92 N20G26    29.86R VSB 3/4 WCI   6
6HR MIN TEMP:  20; 6HR MAX TEMP:  22; 6HR PCP:  0.05;

TORRINGTON     LGT SNOW  28  25  88 N21       29.94S FOG     WCI  15
6HR MIN TEMP:  26; 6HR MAX TEMP:  28; 6HR PCP: TRACE;


$$




USA.gov is the U.S. government's official web portal to all federal, state and local government web resources and services.